Flag for U.S.A. Weather past 2 weeks in Stockton, California, U.S.A.

Now
80 °F

Sunny.


Feels Like: 80 °F
Forecast: 71 / 104 °F
Wind: 6 mph from Northwest

Location: Stockton Metropolitan Airport

Current Time: Jul 1, 2015 at 8:21:58 AM

Latest Report: Jul 1, 2015 at 7:55 AM


Visibility: 10 mi

Pressure: 29.79 "Hg

Humidity: 42%

Dew point: 55 °F

Location of StocktonLocation

Historic Weather in Stockton — Graph

°F

Stockton temperature yesterday

Maximum temperature yesterday: 106 °F (at 4:55 PM)
Minimum temperature yesterday: 66 °F (at 5:55 AM)
Average temperature yesterday: 87 °F

Past Weeks' High & Low Weather Summary

 TemperatureHumidityPressure
High106 °F (Jun 30, 4:55 PM)90% (Jun 29, 5:55 AM)30.01 "Hg (Jun 29, 5:55 AM)
Low55 °F (Jun 22, 5:55 AM)12% (Jun 19, 5:55 PM)29.73 "Hg (Jun 30, 5:55 PM)
Average78 °F42%29.88 "Hg
* Reported Jun 16 6:55 AM — Jul 1 6:55 AM, Stockton, Weather by CustomWeather, © 2015

Note: Actual official high and low records may vary slightly from our data, if they occured in-between our weather recording intervals... More about our weather records

Advertising

Stockton weather history for previous 24 hours

 ConditionsComfort  
Time TempWeatherWind HumidityBarometerVisibility
6:55 AM
Wed, Jul 1
74 °FSunny.3 mph52%29.77 "Hg10 mi
5:55 AM72 °FClear.5 mph49%29.76 "Hg8 mi
4:55 AM72 °FClear.6 mph55%29.74 "Hg8 mi
3:55 AM74 °FClear.3 mph50%29.75 "Hg10 mi
2:55 AM76 °FClear.7 mph37%29.75 "Hg10 mi
1:55 AM81 °FClear.7 mph29%29.77 "Hg10 mi
12:55 AM80 °FClear.5 mph38%29.77 "Hg10 mi
11:55 PM
Tue, Jun 30
85 °FClear.9 mph32%29.78 "Hg10 mi
10:55 PM85 °FClear.7 mph32%29.79 "Hg10 mi
8:55 PM92 °FSunny.9 mph25%29.76 "Hg10 mi
7:55 PM99 °FSunny.10 mph12%29.75 "Hg10 mi
6:55 PM104 °FSunny.12 mph13%29.75 "Hg10 mi
5:55 PM105 °FSunny.9 mph15%29.73 "Hg10 mi
4:55 PM106 °FSunny.8 mph15%29.75 "Hg10 mi
3:55 PM105 °FSunny.8 mph15%29.76 "Hg10 mi
2:55 PM104 °FSunny.9 mph18%29.78 "Hg10 mi
1:55 PM99 °FSunny.6 mph25%29.80 "Hg10 mi
12:55 PM99 °FSunny.7 mph24%29.83 "Hg10 mi
11:55 AM94 °FSunny.No wind26%29.85 "Hg10 mi
10:55 AM90 °FSunny.5 mph32%29.85 "Hg10 mi
9:55 AM85 °FSunny.3 mph37%29.86 "Hg10 mi
8:55 AM81 °FSunny.7 mph42%29.86 "Hg10 mi
Weather by CustomWeather, © 2015

See weather overviewHow to use our weather pages